Garrett, IN

11:18 AM EST on January 16, 2017 (GMT -0500)
Auburn

Weather History for KGWB - December, 2012

Change the Weather History Date:

Monday, December 10, 2012

  Actual Average (KFWA) Record (KFWA)
Temperature  
Mean Temperature 37 °F -  
Max Temperature 42 °F 36 °F 66 °F (1971)
Min Temperature 32 °F 23 °F -12 °F (1958)
Degree Days  
Heating Degree Days 28    
Moisture  
Dew Point 33 °F    
Average Humidity 91    
Maximum Humidity 100    
Minimum Humidity 81    
Precipitation  
Precipitation 0.00 in - - ()
Sea Level Pressure  
Sea Level Pressure 29.74 in    
Wind  
Wind Speed 9 mph (West)    
Max Wind Speed 17 mph    
Max Gust Speed 25 mph    
Visibility 6 miles    
Events Fog , Rain , Snow    
Averages and records for this station are not official NWS values.
T = Trace of Precipitation, MM = Missing Value Source: NWS Daily Summary

Daily Weather History Graph

Daily Weather History Graph

Search for Another Location

Airport or City:

Trip Planner

Search our weather history database for the weather conditions in past years. The results will help you decide how hot, cold, wet, or windy it might be!

Date:

Astronomy

Dec. 10, 2012 Rise Set
Actual Time 7:55 AM EST 5:10 PM EST
Civil Twilight 7:24 AM EST 5:42 PM EST
Nautical Twilight 6:49 AM EST 6:16 PM EST
Astronomical Twilight 6:16 AM EST 6:50 PM EST
Moon 4:36 AM EST (12/10) 3:00 PM EST (12/10)
Length of Visible Light 10h 17m
Length of Day
9h 15m
Waning Crescent, 10% of the Moon is Illuminated
Dec 10
Waning Crescent
Dec 13
New
Dec 20
First Quarter
Dec 28
Full
Jan 4
Last Quarter

Hourly Weather History & Observations

Time (EST) Temp. Windchill Dew Point Humidity Pressure Visibility Wind Dir Wind Speed Gust Speed Precip Events Conditions
12:15 AM 42.8 °F 40.1 °F 41.0 °F 93% 29.67 in 0.5 mi West 4.6 mph - N/A Fog Fog
12:35 AM 42.8 °F 38.0 °F 41.0 °F 93% 29.67 in 0.8 mi West 8.1 mph - N/A   Overcast
12:55 AM 42.8 °F 38.0 °F 42.8 °F 100% 29.67 in 2.5 mi West 8.1 mph - N/A   Overcast
1:15 AM 42.8 °F 36.2 °F 42.8 °F 100% 29.67 in 5.0 mi West 12.7 mph - N/A   Overcast
1:35 AM 42.8 °F 36.6 °F 41.0 °F 93% 29.67 in 4.0 mi West 11.5 mph 16.1 mph N/A   Overcast
1:55 AM 42.8 °F 37.0 °F 41.0 °F 93% 29.66 in 3.0 mi West 10.4 mph 16.1 mph N/A   Overcast
2:15 AM 41.0 °F 36.4 °F 41.0 °F 100% 29.67 in 2.5 mi WSW 6.9 mph - N/A   Overcast
2:35 AM 41.0 °F 35.2 °F 39.2 °F 93% 29.68 in 2.5 mi WSW 9.2 mph - N/A   Overcast
2:55 AM 41.0 °F 34.7 °F 39.2 °F 93% 29.68 in 2.0 mi West 10.4 mph - N/A   Overcast
3:15 AM 39.2 °F 30.2 °F 37.4 °F 93% 29.68 in 5.0 mi West 17.3 mph 20.7 mph N/A   Overcast
3:55 AM 39.2 °F 33.0 °F 37.4 °F 93% 29.67 in 10.0 mi West 9.2 mph 16.1 mph N/A   Overcast
4:15 AM 37.4 °F 29.3 °F 37.4 °F 100% 29.68 in 5.0 mi West 12.7 mph 19.6 mph N/A   Overcast
4:35 AM 37.4 °F 28.5 °F 35.6 °F 93% 29.68 in 7.0 mi West 15.0 mph 20.7 mph N/A   Overcast
4:55 AM 37.4 °F 29.8 °F 35.6 °F 93% 29.68 in 10.0 mi West 11.5 mph 16.1 mph N/A   Overcast
5:15 AM 37.4 °F 28.5 °F 33.8 °F 87% 29.68 in 10.0 mi West 15.0 mph 25.3 mph N/A   Overcast
5:35 AM 37.4 °F 30.3 °F 33.8 °F 87% 29.68 in 10.0 mi West 10.4 mph - N/A   Overcast
5:55 AM 37.4 °F 29.3 °F 33.8 °F 87% 29.68 in 10.0 mi West 12.7 mph 19.6 mph N/A   Overcast
6:15 AM 37.4 °F 29.3 °F 33.8 °F 87% 29.67 in 10.0 mi West 12.7 mph 16.1 mph N/A   Overcast
6:35 AM 37.4 °F 32.1 °F 33.8 °F 87% 29.68 in 10.0 mi West 6.9 mph - N/A   Overcast
6:55 AM 37.4 °F 29.8 °F 33.8 °F 87% 29.68 in 10.0 mi West 11.5 mph 16.1 mph N/A   Overcast
7:15 AM 37.4 °F 30.8 °F 33.8 °F 87% 29.69 in 10.0 mi West 9.2 mph - N/A   Overcast
7:35 AM 35.6 °F 28.6 °F 33.8 °F 93% 29.69 in 10.0 mi West 9.2 mph 17.3 mph N/A   Overcast
7:55 AM 35.6 °F 28.0 °F 32.0 °F 87% 29.69 in 10.0 mi West 10.4 mph - N/A   Overcast
8:15 AM 35.6 °F 28.6 °F 32.0 °F 87% 29.71 in 10.0 mi WSW 9.2 mph - N/A   Mostly Cloudy
8:35 AM 35.6 °F 29.2 °F 32.0 °F 87% 29.71 in 10.0 mi West 8.1 mph - N/A   Scattered Clouds
8:55 AM 35.6 °F 28.0 °F 32.0 °F 87% 29.71 in 10.0 mi West 10.4 mph - N/A   Scattered Clouds
9:15 AM 35.6 °F 26.6 °F 32.0 °F 87% 29.71 in 10.0 mi West 13.8 mph 17.3 mph N/A   Overcast
9:35 AM 35.6 °F 26.6 °F 32.0 °F 87% 29.71 in 10.0 mi West 13.8 mph 17.3 mph N/A   Overcast
9:55 AM 33.8 °F 26.4 °F 30.2 °F 87% 29.72 in 10.0 mi West 9.2 mph 18.4 mph N/A   Mostly Cloudy
10:15 AM 35.6 °F 26.2 °F 32.0 °F 87% 29.72 in 10.0 mi West 15.0 mph - N/A   Scattered Clouds
10:35 AM 35.6 °F 26.6 °F 32.0 °F 87% 29.73 in 10.0 mi West 13.8 mph 17.3 mph N/A   Mostly Cloudy
10:55 AM 35.6 °F 27.1 °F 32.0 °F 87% 29.73 in 10.0 mi West 12.7 mph - N/A   Overcast
11:15 AM 35.6 °F 27.1 °F 30.2 °F 81% 29.73 in 10.0 mi West 12.7 mph 18.4 mph N/A   Overcast
11:35 AM 35.6 °F 27.1 °F 30.2 °F 81% 29.73 in 10.0 mi West 12.7 mph 19.6 mph N/A   Overcast
11:55 AM 35.6 °F 28.0 °F 32.0 °F 87% 29.72 in 10.0 mi West 10.4 mph - N/A   Mostly Cloudy
12:15 PM 35.6 °F 27.5 °F 32.0 °F 87% 29.72 in 7.0 mi West 11.5 mph 18.4 mph N/A   Overcast
12:55 PM 35.6 °F 28.0 °F 32.0 °F 87% 29.71 in 7.0 mi West 10.4 mph - N/A   Overcast
1:15 PM 33.8 °F 24.8 °F 32.0 °F 93% 29.71 in 7.0 mi West 12.7 mph 16.1 mph N/A   Overcast
1:35 PM 33.8 °F 25.8 °F 30.2 °F 87% 29.71 in 5.0 mi West 10.4 mph 17.3 mph N/A   Overcast
1:55 PM 33.8 °F 25.3 °F 30.2 °F 87% 29.71 in 5.0 mi West 11.5 mph - N/A   Overcast
2:15 PM 33.8 °F 24.8 °F 30.2 °F 87% 29.71 in 5.0 mi West 12.7 mph - N/A   Overcast
2:35 PM 33.8 °F 24.8 °F 30.2 °F 87% 29.71 in 5.0 mi West 12.7 mph 16.1 mph N/A   Overcast
2:55 PM 33.8 °F 25.3 °F 30.2 °F 87% 29.72 in 5.0 mi West 11.5 mph - N/A   Overcast
3:15 PM 33.8 °F 26.4 °F 30.2 °F 87% 29.73 in 5.0 mi WSW 9.2 mph 17.3 mph N/A   Overcast
3:35 PM 33.8 °F 25.3 °F 30.2 °F 87% 29.73 in 5.0 mi West 11.5 mph 16.1 mph N/A   Overcast
3:55 PM 33.8 °F 28.6 °F 30.2 °F 87% 29.73 in 5.0 mi West 5.8 mph - N/A   Overcast
4:15 PM 33.8 °F 25.3 °F 30.2 °F 87% 29.73 in 5.0 mi West 11.5 mph - N/A   Overcast
4:55 PM 33.8 °F 25.8 °F 30.2 °F 87% 29.75 in 5.0 mi WNW 10.4 mph - N/A   Overcast
5:15 PM 33.8 °F 25.8 °F 30.2 °F 87% 29.76 in 7.0 mi West 10.4 mph - N/A   Overcast
5:35 PM 33.8 °F 25.3 °F 30.2 °F 87% 29.78 in 7.0 mi West 11.5 mph 17.3 mph N/A   Overcast
5:55 PM 33.8 °F 25.8 °F 30.2 °F 87% 29.78 in 5.0 mi West 10.4 mph - N/A   Overcast
6:15 PM 32.0 °F 24.8 °F 30.2 °F 93% 29.78 in 3.0 mi West 8.1 mph - N/A Rain Light Rain
6:35 PM 32.0 °F 24.8 °F 32.0 °F 100% 29.78 in 4.0 mi West 8.1 mph - N/A   Overcast
6:55 PM 32.0 °F 26.4 °F 32.0 °F 100% 29.80 in 5.0 mi West 5.8 mph - N/A   Overcast
7:15 PM 32.0 °F 26.4 °F 32.0 °F 100% 29.80 in 5.0 mi WSW 5.8 mph - N/A   Overcast
7:35 PM 32.0 °F 26.4 °F 32.0 °F 100% 29.81 in 5.0 mi West 5.8 mph - N/A   Overcast
7:55 PM 32.0 °F 27.5 °F 32.0 °F 100% 29.81 in 5.0 mi West 4.6 mph - N/A   Overcast
8:15 PM 33.8 °F 29.6 °F 32.0 °F 93% 29.83 in 5.0 mi West 4.6 mph - N/A   Overcast
8:35 PM 33.8 °F 29.6 °F 32.0 °F 93% 29.83 in 5.0 mi West 4.6 mph - N/A   Overcast
8:55 PM 33.8 °F 29.6 °F 32.0 °F 93% 29.84 in 5.0 mi West 4.6 mph - N/A Snow Light Snow
9:15 PM 33.8 °F 30.8 °F 32.0 °F 93% 29.84 in 4.0 mi West 3.5 mph - N/A Snow Light Snow
9:35 PM 33.8 °F 30.8 °F 32.0 °F 93% 29.85 in 4.0 mi West 3.5 mph - N/A Snow Light Snow
9:55 PM 33.8 °F 29.6 °F 32.0 °F 93% 29.85 in 4.0 mi West 4.6 mph - N/A Snow Light Snow
10:15 PM 33.8 °F 29.6 °F 32.0 °F 93% 29.86 in 4.0 mi West 4.6 mph - N/A Snow Light Snow
10:35 PM 33.8 °F 29.6 °F 32.0 °F 93% 29.87 in 7.0 mi West 4.6 mph - N/A   Overcast
10:55 PM 33.8 °F 30.8 °F 32.0 °F 93% 29.87 in 7.0 mi West 3.5 mph - N/A Snow Light Snow
11:15 PM 33.8 °F 30.8 °F 32.0 °F 93% 29.88 in 7.0 mi West 3.5 mph - N/A   Overcast
11:35 PM 33.8 °F 30.8 °F 32.0 °F 93% 29.88 in 7.0 mi West 3.5 mph - N/A Snow Light Snow
11:55 PM 32.0 °F 28.7 °F 30.2 °F 93% 29.89 in 2.0 mi WSW 3.5 mph - N/A Snow Light Snow